#timestamp,LO_Frequency,Hit,StdDev 
1593421215.6,286046995.5,N
1593421235.5,286046996.1,N
1593421255.3,286046995.8,N
1593421275.1,286046999.6,N
1593421295.9,286046999.0,N
1593421315.7,286046996.9,N
1593421335.5,286046997.6,N
1593421355.4,286046997.7,N
1593421375.2,286046997.5,N
1593421395.1,286046997.5,N
1593421396.0,286046997.5,N
1593421415.8,286046997.6,N
1593421435.6,286046995.8,N
1593421455.5,286046997.5,N
1593421475.3,286046997.4,N
1593421495.1,286046997.0,N
1593421515.9,286046999.2,N
1593421535.7,286046996.9,N
1593421555.6,286046999.4,N
1593421575.4,286046998.6,N
1593421595.2,286046998.2,N
1593421615.1,286046998.7,N
1593421616.0,286046998.7,N
1593421635.8,286046999.5,N
1593421655.7,286046996.6,N
1593421675.5,286046998.4,N
1593421695.3,286046998.9,N
1593421715.2,286046998.4,N
1593421735.0,286046999.1,N
1593421735.9,286046999.1,N
1593421755.7,286046998.8,N
1593421775.6,286046998.2,N
1593421795.4,286046998.6,N
1593421815.3,286046998.1,N
1593421835.1,286047000.7,N
1593421836.0,286047000.7,N
1593421855.8,286047000.3,N
1593421875.7,286047000.3,N
1593421895.5,286046999.7,N
1593421915.3,286047001.1,N
1593421935.2,286047000.6,N
1593421955.0,286046998.2,N
1593421955.9,286046998.2,N
1593421975.8,286046998.9,N
1593421995.6,286046998.5,N
1593422015.4,286046999.1,N
1593422035.3,286046998.3,N
1593422055.1,286046998.1,N
1593422075.8,286046998.6,N
1593422095.7,286047000.9,N
1593422115.5,286047000.8,N
1593422135.4,286047000.5,N
1593422155.2,286047000.8,N
1593422175.0,286047001.1,N
1593422175.9,286047001.1,N
1593422195.8,286047000.8,N
1593422215.6,286046998.4,N
1593422235.4,286046998.4,N
1593422255.3,286046998.7,N
1593422275.1,286046999.0,N
1593422295.9,286046998.2,N
1593422315.7,286047000.6,N
1593422335.5,286047001.2,N
1593422355.4,286046998.7,N
1593422375.2,286046999.1,N
1593422395.0,286046999.3,N
1593422395.9,286046999.3,N
1593422415.8,286046996.6,Y
1593422435.6,286046997.0,P
1593422455.5,286046999.0,N
1593422475.3,286046998.4,N
1593422495.1,286046997.0,Y
1593422515.9,286046999.0,P
1593422535.7,286046998.2,P
1593422555.6,286046999.9,N
1593422575.4,286047002.3,Y
1593422595.2,286047001.7,P
1593422615.1,286047001.5,N
1593422616.0,286047001.5,N
1593422635.8,286047002.1,N
1593422655.7,286047001.7,N
1593422675.5,286047001.8,N
1593422695.3,286047001.8,N
1593422715.2,286047000.8,N
1593422735.9,286046998.1,N
1593422755.7,286047002.8,N
1593422775.6,286047000.7,N
1593422795.4,286046999.9,N
1593422815.2,286047001.8,N
1593422835.1,286047001.5,N
1593422836.0,286047001.5,N
1593422855.8,286046999.7,N
1593422875.7,286047000.4,N
1593422895.5,286047002.4,N
1593422915.3,286047002.6,N
1593422935.2,286046999.7,N
1593422955.0,286047000.4,N
1593422955.9,286047000.4,N
1593422975.8,286047000.5,N
1593422995.6,286047002.8,N
1593423015.4,286047002.3,N
1593423035.3,286047000.5,N
1593423055.1,286047000.7,N
1593423056.0,286047000.7,N
1593423075.8,286047000.7,N
1593423095.7,286047001.0,N
1593423115.5,286047001.2,N
1593423135.3,286047000.3,N
1593423155.2,286047000.4,N
1593423175.0,286047002.4,N
1593423175.9,286047002.4,N
1593423195.8,286047002.2,N
1593423215.6,286047001.5,N
1593423235.4,286047004.4,Y
1593423255.3,286046998.3,P
1593423275.1,286046998.7,N
1593423295.9,286046996.6,N
1593423315.7,286046997.4,N
1593423335.5,286046997.0,N
1593423355.4,286046998.3,N
1593423375.2,286046999.0,N
1593423395.0,286047000.8,N
1593423395.9,286047000.8,N
1593423415.8,286047000.7,N
1593423435.6,286047000.3,N
1593423455.4,286047001.0,N
1593423475.3,286047000.8,N
1593423495.1,286047000.7,N
1593423515.9,286047000.0,N
1593423535.7,286047001.0,N
1593423555.5,286047000.7,N
1593423575.4,286046998.1,N
1593423595.2,286047002.4,N
1593423615.1,286047004.9,Y
1593423616.0,286047004.9,P
1593423635.8,286047007.6,N
1593423655.6,286047005.4,N
1593423675.5,286047002.1,N
1593423695.3,286046999.8,N
1593423715.1,286047001.2,N
1593423735.9,286047000.8,N
1593423755.7,286047000.6,N
1593423775.6,286046998.5,N
1593423795.4,286046999.3,N
1593423815.2,286046999.1,N
1593423835.1,286046998.8,N
1593423836.0,286046998.8,N
1593423855.8,286046998.8,N
1593423875.6,286046998.6,N
1593423895.5,286046998.2,N
1593423915.3,286046999.3,N
1593423935.2,286046996.5,N
1593423955.9,286046997.4,N
1593423975.7,286046996.7,N
1593423995.6,286046996.7,N
1593424015.4,286046997.9,N
1593424035.2,286046997.7,N
1593424055.1,286046997.6,N
1593424056.0,286046997.6,N
1593424075.8,286046997.7,N
1593424095.7,286046997.6,N
1593424115.5,286046999.2,N
1593424135.3,286046998.1,N
1593424155.2,286046998.9,N
1593424175.9,286047001.2,N
1593424195.7,286046998.1,N
1593424215.6,286046999.0,N
1593424235.4,286046998.9,N
1593424255.2,286046998.3,N
1593424275.1,286046996.9,N
1593424276.0,286046996.9,N
1593424295.8,286046999.2,N
1593424315.7,286046999.0,N
1593424335.5,286046999.3,N
1593424355.3,286047000.6,N
1593424375.2,286046999.9,N
1593424395.0,286047000.7,N
1593424395.9,286047000.7,N
1593424415.8,286047001.2,N
1593424435.6,286047000.4,N
1593424455.4,286047001.8,N
1593424475.3,286047002.6,N
1593424495.1,286047002.0,N
1593424515.8,286047002.7,N
1593424535.7,286047000.9,N
1593424555.5,286047001.0,N
1593424575.4,286047002.3,N
1593424595.2,286047001.4,N
1593424615.0,286047002.3,N
1593424615.9,286047002.3,N
1593424635.8,286047001.3,N
1593424655.6,286047004.0,N
1593424675.4,286047001.8,N
1593424695.3,286047002.7,N
1593424715.1,286047004.0,N
1593424735.9,286047001.8,N
1593424755.7,286047001.5,N
1593424775.5,286047002.0,N
1593424795.4,286047000.1,N
